| time (UTC) | temp C | wind direction | speed KPH | gust KPH | rain 1hr cm | rain 24hr cm | rain mn cm | humidity % | barometer mb |
| 20260509113028 | 11 | 248 | 0.0 | 3.2 | 0.00 | 0.00 | 0.00 | 74 | 1022.6 |
| 20260509112518 | 11 | 180 | 0.0 | 3.2 | 0.00 | 0.00 | 0.00 | 73 | 1022.9 |
| 20260509111457 | 11 | 158 | 0.0 | 3.2 | 0.00 | 0.00 | 0.00 | 79 | 1022.5 |
| 20260509110947 | 11 | 248 | 0.0 | 0.0 | 0.00 | 0.00 | 0.00 | 82 | 1022.4 |
| 20260509110438 | 11 | 225 | 0.0 | 0.0 | 0.00 | 0.00 | 0.00 | 82 | 1022.4 |
| 20260509105928 | 11 | 203 | 0.0 | 0.0 | 0.00 | 0.00 | 0.00 | 81 | 1022.3 |
| 20260509104907 | 11 | 225 | 0.0 | 0.0 | 0.00 | 0.00 | 0.00 | 79 | 1022.0 |
| 20260509104357 | 11 | 203 | 0.0 | 3.2 | 0.00 | 0.00 | 0.00 | 78 | 1021.9 |
| 20260509103847 | 11 | 248 | 0.0 | 3.2 | 0.00 | 0.00 | 0.00 | 78 | 1021.9 |
| 20260509103336 | 11 | 158 | 0.0 | 3.2 | 0.00 | 0.00 | 0.00 | 77 | 1021.8 |
| 20260509102826 | 11 | 203 | 0.0 | 3.2 | 0.00 | 0.00 | 0.00 | 76 | 1021.7 |
| 20260509102317 | 11 | 203 | 0.0 | 3.2 | 0.00 | 0.00 | 0.00 | 74 | 1021.5 |
| 20260509101806 | 11 | 248 | 0.0 | 3.2 | 0.00 | 0.00 | 0.00 | 76 | 1021.3 |
| 20260509101256 | 11 | 248 | 0.0 | 3.2 | 0.00 | 0.00 | 0.00 | 82 | 1021.0 |
| 20260509100746 | 11 | 248 | 0.0 | 0.0 | 0.00 | 0.00 | 0.00 | 85 | 1021.0 |
| 20260509100236 | 11 | 225 | 0.0 | 0.0 | 0.00 | 0.00 | 0.00 | 84 | 1020.9 |
| 20260509094706 | 10 | 203 | 0.0 | 0.0 | 0.00 | 0.00 | 0.00 | 84 | 1020.1 |
| 20260509093135 | 10 | 203 | 0.0 | 0.0 | 0.00 | 0.00 | 0.00 | 83 | 1019.8 |
| 20260509092625 | 11 | 225 | 0.0 | 0.0 | 0.00 | 0.00 | 0.00 | 83 | 1019.7 |
| 20260509091605 | 11 | 225 | 0.0 | 0.0 | 0.00 | 0.00 | 0.00 | 82 | 1019.3 |
| 20260509091055 | 11 | 225 | 0.0 | 0.0 | 0.00 | 0.00 | 0.00 | 81 | 1019.2 |
| 20260509090034 | 11 | 180 | 0.0 | 0.0 | 0.00 | 0.00 | 0.00 | 79 | 1019.0 |
| 20260509085524 | 11 | 248 | 0.0 | 0.0 | 0.00 | 0.00 | 0.00 | 78 | 1019.0 |
| 20260509085024 | 11 | 225 | 0.0 | 3.2 | 0.00 | 0.00 | 0.00 | 77 | 1019.1 |
| 20260509083955 | 11 | 248 | 0.0 | 0.0 | 0.00 | 0.00 | 0.00 | 76 | 1018.8 |
| 20260509082424 | 11 | 225 | 0.0 | 0.0 | 0.00 | 0.00 | 0.00 | 75 | 1018.3 |
| 20260509081913 | 10 | 203 | 0.0 | 0.0 | 0.00 | 0.00 | 0.00 | 75 | 1018.3 |
| 20260509080853 | 11 | 225 | 0.0 | 0.0 | 0.00 | 0.00 | 0.00 | 75 | 1018.3 |
| 20260509080343 | 11 | 225 | 0.0 | 0.0 | 0.00 | 0.00 | 0.00 | 75 | 1018.0 |
| 20260509075833 | 11 | 180 | 0.0 | 0.0 | 0.00 | 0.00 | 0.00 | 74 | 1018.2 |
| 20260509075324 | 11 | 225 | 0.0 | 0.0 | 0.00 | 0.00 | 0.00 | 74 | 1017.8 |
| 20260509074813 | 11 | 225 | 0.0 | 0.0 | 0.00 | 0.00 | 0.00 | 76 | 1017.8 |
| 20260509074304 | 11 | 225 | 0.0 | 0.0 | 0.00 | 0.00 | 0.00 | 77 | 1017.9 |
| 20260509073752 | 10 | 225 | 0.0 | 0.0 | 0.00 | 0.00 | 0.00 | 78 | 1018.0 |
| 20260509072733 | 10 | 225 | 0.0 | 0.0 | 0.00 | 0.00 | 0.00 | 82 | 1018.0 |
| 20260509072223 | 10 | 225 | 0.0 | 0.0 | 0.00 | 0.00 | 0.00 | 84 | 1017.8 |
| 20260509071713 | 10 | 225 | 0.0 | 0.0 | 0.00 | 0.00 | 0.00 | 85 | 1017.8 |
| 20260509071203 | 9 | 225 | 0.0 | 0.0 | 0.00 | 0.00 | 0.00 | 88 | 1017.8 |
| 20260509070653 | 9 | 248 | 0.0 | 0.0 | 0.00 | 0.00 | 0.00 | 89 | 1017.7 |
| 20260509070142 | 9 | 248 | 0.0 | 0.0 | 0.00 | 0.00 | 0.00 | 92 | 1017.6 |
| 20260509065632 | 8 | 248 | 0.0 | 0.0 | 0.00 | 0.00 | 0.00 | 94 | 1017.8 |
| 20260509065122 | 8 | 270 | 0.0 | 0.0 | 0.00 | 0.00 | 0.00 | 96 | 1017.6 |
| 20260509064612 | 8 | 270 | 0.0 | 0.0 | 0.00 | 0.00 | 0.00 | 97 | 1017.7 |
| 20260509064102 | 8 | 270 | 0.0 | 0.0 | 0.00 | 0.00 | 0.00 | 97 | 1017.5 |
| 20260509063552 | 8 | 270 | 0.0 | 0.0 | 0.00 | 0.00 | 0.00 | 97 | 1017.7 |
| 20260509062531 | 8 | 270 | 0.0 | 0.0 | 0.00 | 0.00 | 0.00 | 96 | 1017.8 |
| 20260509062025 | 8 | 270 | 0.0 | 0.0 | 0.00 | 0.00 | 0.00 | 95 | 1017.6 |
| 20260509061001 | 8 | 270 | 0.0 | 0.0 | 0.00 | 0.00 | 0.00 | 94 | 1017.6 |
| 20260509055940 | 8 | 270 | 0.0 | 0.0 | 0.00 | 0.00 | 0.00 | 94 | 1017.3 |
| 20260509054411 | 8 | 315 | 0.0 | 0.0 | 0.00 | 0.00 | 0.00 | 98 | 1017.3 |
| 20260509052840 | 8 | 315 | 0.0 | 0.0 | 0.00 | 0.00 | 0.00 | 98 | 1017.5 |
| 20260509052330 | 8 | 315 | 0.0 | 0.0 | 0.00 | 0.00 | 0.00 | 97 | 1017.6 |
| 20260509051820 | 8 | 315 | 0.0 | 0.0 | 0.00 | 0.00 | 0.00 | 97 | 1017.5 |
| 20260509051309 | 8 | 315 | 0.0 | 0.0 | 0.00 | 0.00 | 0.00 | 97 | 1017.8 |
| 20260509050757 | 8 | 315 | 0.0 | 0.0 | 0.00 | 0.00 | 0.00 | 97 | 1017.5 |
| 20260509050201 | 8 | 315 | 0.0 | 0.0 | 0.00 | 0.00 | 0.00 | 97 | 1017.3 |
| 20260509045942 | 8 | 315 | 0.0 | 0.0 | 0.00 | 0.00 | 0.00 | 98 | 1017.3 |
| 20260509045432 | 8 | 315 | 0.0 | 0.0 | 0.00 | 0.00 | 0.00 | 98 | 1017.6 |
| 20260509044412 | 8 | 315 | 0.0 | 0.0 | 0.00 | 0.00 | 0.00 | 98 | 1017.4 |
| 20260509043901 | 8 | 315 | 0.0 | 0.0 | 0.00 | 0.00 | 0.00 | 98 | 1017.3 |
| 20260509043352 | 8 | 315 | 0.0 | 0.0 | 0.00 | 0.00 | 0.00 | 97 | 1017.4 |
| 20260509042331 | 8 | 315 | 0.0 | 0.0 | 0.00 | 0.00 | 0.00 | 97 | 1017.4 |
| 20260509041821 | 8 | 315 | 0.0 | 0.0 | 0.00 | 0.00 | 0.00 | 97 | 1017.8 |
| 20260509040801 | 8 | 315 | 0.0 | 0.0 | 0.00 | 0.00 | 0.00 | 97 | 1017.8 |
| 20260509040250 | 9 | 315 | 0.0 | 0.0 | 0.00 | 0.00 | 0.00 | 97 | 1017.5 |
| 20260509035741 | 9 | 315 | 0.0 | 0.0 | 0.00 | 0.00 | 0.00 | 96 | 1017.1 |
| 20260509035230 | 9 | 315 | 0.0 | 0.0 | 0.00 | 0.00 | 0.00 | 96 | 1017.0 |
| 20260509034720 | 9 | 315 | 0.0 | 0.0 | 0.00 | 0.00 | 0.00 | 97 | 1017.3 |
| 20260509034211 | 9 | 315 | 0.0 | 0.0 | 0.00 | 0.00 | 0.00 | 97 | 1017.6 |
| 20260509033700 | 8 | 315 | 0.0 | 0.0 | 0.00 | 0.00 | 0.00 | 96 | 1017.9 |
| 20260509033150 | 9 | 315 | 0.0 | 0.0 | 0.00 | 0.00 | 0.00 | 96 | 1017.8 |
| 20260509032640 | 8 | 315 | 0.0 | 0.0 | 0.00 | 0.00 | 0.00 | 96 | 1017.9 |
| 20260509032131 | 9 | 315 | 0.0 | 0.0 | 0.00 | 0.00 | 0.00 | 96 | 1017.7 |
| 20260509031620 | 9 | 315 | 0.0 | 0.0 | 0.00 | 0.00 | 0.00 | 96 | 1017.7 |
| 20260509031109 | 8 | 315 | 0.0 | 0.0 | 0.00 | 0.00 | 0.00 | 96 | 1017.5 |
| 20260509030049 | 9 | 315 | 0.0 | 0.0 | 0.00 | 0.00 | 0.00 | 95 | 1017.6 |
| 20260509025029 | 9 | 248 | 0.0 | 0.0 | 0.00 | 0.00 | 0.00 | 95 | 1017.3 |
| 20260509024518 | 9 | 248 | 0.0 | 0.0 | 0.00 | 0.00 | 0.00 | 95 | 1017.3 |
| 20260509022949 | 9 | 248 | 0.0 | 0.0 | 0.00 | 0.00 | 0.00 | 93 | 1017.1 |
| 20260509022438 | 10 | 248 | 0.0 | 0.0 | 0.00 | 0.00 | 0.00 | 93 | 1017.1 |
| 20260509021928 | 10 | 248 | 0.0 | 0.0 | 0.00 | 0.00 | 0.00 | 92 | 1017.0 |
| 20260509021419 | 10 | 248 | 0.0 | 0.0 | 0.00 | 0.00 | 0.00 | 91 | 1016.9 |
| 20260509020908 | 10 | 248 | 0.0 | 0.0 | 0.00 | 0.00 | 0.00 | 89 | 1017.0 |
| 20260509020359 | 11 | 248 | 0.0 | 0.0 | 0.00 | 0.00 | 0.00 | 88 | 1016.7 |
| 20260509015338 | 10 | 248 | 0.0 | 0.0 | 0.00 | 0.00 | 0.00 | 89 | 1017.0 |
| 20260509014827 | 10 | 248 | 0.0 | 0.0 | 0.00 | 0.00 | 0.00 | 91 | 1017.1 |
| 20260509014318 | 10 | 248 | 0.0 | 0.0 | 0.00 | 0.00 | 0.00 | 93 | 1016.7 |
| 20260509013807 | 10 | 248 | 0.0 | 0.0 | 0.00 | 0.00 | 0.00 | 94 | 1016.9 |
| 20260509013258 | 10 | 248 | 0.0 | 0.0 | 0.00 | 0.00 | 0.00 | 95 | 1016.9 |
| 20260509012747 | 10 | 248 | 0.0 | 0.0 | 0.00 | 0.00 | 0.00 | 95 | 1016.7 |
| 20260509012237 | 10 | 248 | 0.0 | 0.0 | 0.00 | 0.00 | 0.00 | 95 | 1016.7 |
| 20260509011216 | 10 | 248 | 0.0 | 0.0 | 0.00 | 0.00 | 0.00 | 94 | 1016.5 |
| 20260509010157 | 10 | 248 | 0.0 | 0.0 | 0.00 | 0.00 | 0.00 | 93 | 1016.1 |
| 20260509005647 | 10 | 248 | 0.0 | 0.0 | 0.00 | 0.00 | 0.00 | 94 | 1016.1 |
| 20260509005136 | 9 | 248 | 0.0 | 0.0 | 0.00 | 0.00 | 0.00 | 95 | 1016.1 |
| 20260509004626 | 10 | 248 | 0.0 | 0.0 | 0.00 | 0.00 | 0.00 | 95 | 1016.2 |
| 20260509004122 | 9 | 248 | 0.0 | 0.0 | 0.00 | 0.00 | 0.00 | 95 | 1015.8 |
| 20260509003606 | 10 | 248 | 0.0 | 0.0 | 0.00 | 0.00 | 0.00 | 94 | 1015.7 |
| 20260509003055 | 10 | 248 | 0.0 | 0.0 | 0.00 | 0.00 | 0.00 | 94 | 1015.6 |
| 20260509002546 | 10 | 248 | 0.0 | 0.0 | 0.00 | 0.00 | 0.00 | 95 | 1015.2 |
| 20260509002036 | 10 | 248 | 0.0 | 0.0 | 0.00 | 0.00 | 0.00 | 94 | 1015.6 |
| 20260509001525 | 10 | 248 | 0.0 | 0.0 | 0.00 | 0.00 | 0.00 | 94 | 1015.5 |
| 20260509001025 | 10 | 248 | 0.0 | 0.0 | 0.00 | 0.00 | 0.00 | 94 | 1015.2 |
| 20260509000505 | 10 | 248 | 0.0 | 0.0 | 0.00 | 0.00 | 0.00 | 94 | 1015.1 |
| 20260508235955 | 10 | 248 | 0.0 | 0.0 | 0.00 | 0.00 | 0.00 | 93 | 1015.1 |
| 20260508235445 | 10 | 248 | 0.0 | 0.0 | 0.00 | 0.00 | 0.00 | 93 | 1015.3 |
| 20260508234936 | 10 | 248 | 0.0 | 0.0 | 0.00 | 0.00 | 0.00 | 93 | 1015.2 |
| 20260508234425 | 10 | 248 | 0.0 | 0.0 | 0.00 | 0.00 | 0.00 | 93 | 1015.2 |
| 20260508233916 | 10 | 248 | 0.0 | 0.0 | 0.00 | 0.00 | 0.00 | 93 | 1015.0 |
| 20260508232855 | 10 | 248 | 0.0 | 0.0 | 0.00 | 0.00 | 0.00 | 92 | 1015.0 |
| 20260508232344 | 10 | 248 | 0.0 | 0.0 | 0.00 | 0.00 | 0.00 | 91 | 1015.1 |
| 20260508231834 | 10 | 248 | 0.0 | 0.0 | 0.00 | 0.00 | 0.00 | 91 | 1015.0 |
| 20260508231325 | 10 | 248 | 0.0 | 0.0 | 0.00 | 0.00 | 0.00 | 90 | 1014.8 |
| 20260508230814 | 11 | 248 | 0.0 | 0.0 | 0.00 | 0.00 | 0.00 | 90 | 1014.9 |
| 20260508230304 | 11 | 248 | 0.0 | 0.0 | 0.00 | 0.00 | 0.00 | 90 | 1014.8 |
| 20260508225754 | 11 | 248 | 0.0 | 0.0 | 0.00 | 0.00 | 0.00 | 89 | 1014.8 |
| 20260508225244 | 11 | 248 | 0.0 | 0.0 | 0.00 | 0.00 | 0.00 | 89 | 1014.7 |
| 20260508224734 | 11 | 248 | 0.0 | 0.0 | 0.00 | 0.00 | 0.00 | 87 | 1014.7 |
| 20260508224223 | 11 | 248 | 0.0 | 0.0 | 0.00 | 0.00 | 0.00 | 87 | 1014.3 |
| 20260508223203 | 11 | 248 | 0.0 | 0.0 | 0.00 | 0.00 | 0.00 | 85 | 1014.3 |
| 20260508222653 | 11 | 248 | 0.0 | 0.0 | 0.00 | 0.00 | 0.00 | 83 | 1014.0 |
| 20260508222143 | 12 | 248 | 0.0 | 0.0 | 0.00 | 0.00 | 0.00 | 82 | 1014.0 |
| 20260508221633 | 12 | 248 | 0.0 | 0.0 | 0.00 | 0.00 | 0.00 | 80 | 1014.2 |
| 20260508220613 | 13 | 248 | 0.0 | 0.0 | 0.00 | 0.00 | 0.00 | 76 | 1013.9 |
| 20260508215553 | 13 | 225 | 0.0 | 0.0 | 0.00 | 0.00 | 0.00 | 74 | 1013.8 |
| 20260508215043 | 13 | 225 | 0.0 | 0.0 | 0.00 | 0.00 | 0.00 | 68 | 1013.9 |
| 20260508214535 | 14 | 225 | 0.0 | 0.0 | 0.00 | 0.00 | 0.00 | 66 | 1013.8 |
| 20260508213513 | 15 | 248 | 0.0 | 0.0 | 0.00 | 0.00 | 0.00 | 65 | 1014.1 |
| 20260508213003 | 15 | 248 | 0.0 | 3.2 | 0.00 | 0.00 | 0.00 | 63 | 1014.2 |
| 20260508212452 | 15 | 248 | 0.0 | 3.2 | 0.00 | 0.00 | 0.00 | 62 | 1014.2 |
| 20260508211941 | 15 | 270 | 0.0 | 3.2 | 0.00 | 0.00 | 0.00 | 59 | 1014.3 |
| 20260508211432 | 16 | 270 | 0.0 | 3.2 | 0.00 | 0.00 | 0.00 | 58 | 1014.3 |
| 20260508210922 | 16 | 270 | 0.0 | 3.2 | 0.00 | 0.00 | 0.00 | 56 | 1014.3 |
| 20260508210411 | 16 | 293 | 0.0 | 3.2 | 0.00 | 0.00 | 0.00 | 54 | 1014.1 |
| 20260508205901 | 16 | 270 | 0.0 | 3.2 | 0.00 | 0.00 | 0.00 | 53 | 1013.9 |
| 20260508205351 | 16 | 293 | 0.0 | 3.2 | 0.00 | 0.00 | 0.00 | 52 | 1014.1 |
| 20260508204841 | 17 | 293 | 0.0 | 3.2 | 0.00 | 0.00 | 0.00 | 50 | 1014.0 |
| 20260508204330 | 17 | 270 | 0.0 | 3.2 | 0.00 | 0.00 | 0.00 | 51 | 1013.9 |
| 20260508203821 | 17 | 270 | 0.0 | 3.2 | 0.00 | 0.00 | 0.00 | 50 | 1013.9 |
| 20260508203311 | 17 | 293 | 0.0 | 3.2 | 0.00 | 0.00 | 0.00 | 49 | 1013.8 |
| 20260508202800 | 17 | 293 | 0.0 | 3.2 | 0.00 | 0.00 | 0.00 | 46 | 1013.7 |
| 20260508202251 | 17 | 248 | 0.0 | 3.2 | 0.00 | 0.00 | 0.00 | 47 | 1013.8 |
| 20260508201741 | 18 | 248 | 0.0 | 3.2 | 0.00 | 0.00 | 0.00 | 45 | 1014.1 |
| 20260508201231 | 18 | 270 | 0.0 | 3.2 | 0.00 | 0.00 | 0.00 | 45 | 1014.0 |
| 20260508200720 | 18 | 225 | 0.0 | 3.2 | 0.00 | 0.00 | 0.00 | 44 | 1013.9 |
| 20260508200210 | 18 | 248 | 0.0 | 3.2 | 0.00 | 0.00 | 0.00 | 43 | 1013.8 |
| 20260508195701 | 18 | 293 | 0.0 | 3.2 | 0.00 | 0.00 | 0.00 | 43 | 1013.7 |
| 20260508195149 | 18 | 248 | 0.0 | 3.2 | 0.00 | 0.00 | 0.00 | 43 | 1013.8 |
| 20260508194639 | 18 | 248 | 0.0 | 6.4 | 0.00 | 0.00 | 0.00 | 43 | 1013.9 |
| 20260508194130 | 18 | 225 | 0.0 | 9.7 | 0.00 | 0.00 | 0.00 | 44 | 1013.7 |
| 20260508193619 | 18 | 248 | 1.6 | 9.7 | 0.00 | 0.00 | 0.00 | 44 | 1013.9 |
| 20260508193109 | 18 | 248 | 0.0 | 3.2 | 0.00 | 0.00 | 0.00 | 41 | 1013.9 |
| 20260508192600 | 18 | 248 | 0.0 | 3.2 | 0.00 | 0.00 | 0.00 | 42 | 1014.0 |
| 20260508192049 | 18 | 225 | 0.0 | 17.7 | 0.00 | 0.00 | 0.00 | 44 | 1014.1 |
| 20260508191539 | 18 | 225 | 0.0 | 17.7 | 0.00 | 0.00 | 0.00 | 43 | 1014.2 |
| 20260508191028 | 18 | 270 | 1.6 | 14.5 | 0.00 | 0.00 | 0.00 | 44 | 1014.1 |
| 20260508185458 | 18 | 293 | 8.0 | 17.7 | 0.00 | 0.00 | 0.00 | 44 | 1014.1 |
| 20260508184949 | 18 | 270 | 8.0 | 17.7 | 0.00 | 0.00 | 0.00 | 45 | 1014.4 |
| 20260508184438 | 18 | 270 | 1.6 | 3.2 | 0.00 | 0.00 | 0.00 | 44 | 1014.6 |
| 20260508183928 | 18 | 293 | 0.0 | 3.2 | 0.00 | 0.00 | 0.00 | 44 | 1014.5 |
| 20260508183419 | 19 | 270 | 0.0 | 3.2 | 0.00 | 0.00 | 0.00 | 44 | 1014.5 |
| 20260508182908 | 18 | 248 | 0.0 | 3.2 | 0.00 | 0.00 | 0.00 | 44 | 1014.5 |
| 20260508182359 | 18 | 225 | 0.0 | 17.7 | 0.00 | 0.00 | 0.00 | 44 | 1014.5 |
| 20260508181849 | 18 | 225 | 1.6 | 17.7 | 0.00 | 0.00 | 0.00 | 44 | 1014.6 |
| 20260508180828 | 18 | 225 | 0.0 | 17.7 | 0.00 | 0.00 | 0.00 | 43 | 1014.6 |
| 20260508174747 | 18 | 270 | 3.2 | 22.5 | 0.00 | 0.00 | 0.00 | 45 | 1014.5 |
| 20260508173727 | 18 | 293 | 0.0 | 3.2 | 0.00 | 0.00 | 0.00 | 43 | 1015.0 |
| 20260508173216 | 18 | 248 | 0.0 | 3.2 | 0.00 | 0.00 | 0.00 | 43 | 1014.9 |
| 20260508172157 | 18 | 270 | 1.6 | 20.9 | 0.00 | 0.00 | 0.00 | 45 | 1015.1 |
| 20260508171647 | 18 | 225 | 6.4 | 20.9 | 0.00 | 0.00 | 0.00 | 44 | 1015.6 |
| 20260508171136 | 18 | 293 | 1.6 | 29.0 | 0.00 | 0.00 | 0.00 | 45 | 1015.5 |
| 20260508170627 | 18 | 180 | 0.0 | 29.0 | 0.00 | 0.00 | 0.00 | 42 | 1015.7 |
| 20260508165606 | 17 | 315 | 17.7 | 22.5 | 0.00 | 0.00 | 0.00 | 42 | 1015.6 |
| 20260508164546 | 18 | 293 | 11.3 | 22.5 | 0.00 | 0.00 | 0.00 | 40 | 1015.6 |
| 20260508164036 | 17 | 270 | 16.1 | 22.5 | 0.00 | 0.00 | 0.00 | 41 | 1015.5 |
| 20260508163525 | 18 | 248 | 12.9 | 17.7 | 0.00 | 0.00 | 0.00 | 41 | 1015.9 |
| 20260508163026 | 18 | 270 | 1.6 | 17.7 | 0.00 | 0.00 | 0.00 | 41 | 1015.9 |
| 20260508162505 | 18 | 270 | 8.0 | 20.9 | 0.00 | 0.00 | 0.00 | 42 | 1016.1 |
| 20260508161956 | 18 | 315 | 1.6 | 22.5 | 0.00 | 0.00 | 0.00 | 41 | 1016.0 |
| 20260508160935 | 17 | 270 | 12.9 | 20.9 | 0.00 | 0.00 | 0.00 | 43 | 1016.3 |
| 20260508160424 | 17 | 270 | 4.8 | 22.5 | 0.00 | 0.00 | 0.00 | 45 | 1016.3 |
| 20260508155918 | 17 | 270 | 12.9 | 22.5 | 0.00 | 0.00 | 0.00 | 41 | 1016.4 |
| 20260508154344 | 17 | 270 | 0.0 | 22.5 | 0.00 | 0.00 | 0.00 | 50 | 1016.6 |
| 20260508153834 | 17 | 270 | 14.5 | 22.5 | 0.00 | 0.00 | 0.00 | 47 | 1016.9 |
| 20260508152815 | 17 | 225 | 1.6 | 20.9 | 0.00 | 0.00 | 0.00 | 50 | 1017.1 |
| 20260508152306 | 17 | 248 | 1.6 | 20.9 | 0.00 | 0.00 | 0.00 | 48 | 1016.9 |
| 20260508151754 | 17 | 248 | 3.2 | 29.0 | 0.00 | 0.00 | 0.00 | 48 | 1016.9 |
| 20260508151245 | 17 | 248 | 1.6 | 29.0 | 0.00 | 0.00 | 0.00 | 49 | 1017.1 |
| 20260508150733 | 17 | 270 | 12.9 | 20.9 | 0.00 | 0.00 | 0.00 | 46 | 1017.3 |
| 20260508150224 | 17 | 293 | 1.6 | 20.9 | 0.00 | 0.00 | 0.00 | 48 | 1017.0 |
| 20260508145714 | 17 | 270 | 11.3 | 17.7 | 0.00 | 0.00 | 0.00 | 47 | 1017.2 |
| 20260508145203 | 17 | 293 | 1.6 | 22.5 | 0.00 | 0.00 | 0.00 | 51 | 1017.1 |
| 20260508144653 | 17 | 248 | 1.6 | 22.5 | 0.00 | 0.00 | 0.00 | 51 | 1017.4 |
| 20260508144145 | 17 | 248 | 6.4 | 17.7 | 0.00 | 0.00 | 0.00 | 50 | 1017.2 |
| 20260508143633 | 17 | 248 | 1.6 | 17.7 | 0.00 | 0.00 | 0.00 | 54 | 1017.4 |
| 20260508143123 | 17 | 270 | 1.6 | 20.9 | 0.00 | 0.00 | 0.00 | 56 | 1017.3 |
| 20260508142613 | 16 | 225 | 11.3 | 20.9 | 0.00 | 0.00 | 0.00 | 56 | 1017.3 |
| 20260508142102 | 16 | 270 | 1.6 | 6.4 | 0.00 | 0.00 | 0.00 | 59 | 1017.4 |
| 20260508141552 | 16 | 248 | 1.6 | 14.5 | 0.00 | 0.00 | 0.00 | 59 | 1017.7 |
| 20260508141042 | 16 | 293 | 1.6 | 25.7 | 0.00 | 0.00 | 0.00 | 62 | 1017.0 |
| 20260508140532 | 16 | 270 | 11.3 | 25.7 | 0.00 | 0.00 | 0.00 | 64 | 1017.3 |
| 20260508140025 | 16 | 248 | 9.7 | 20.9 | 0.00 | 0.00 | 0.00 | 64 | 1017.5 |
| 20260508135511 | 16 | 270 | 12.9 | 17.7 | 0.00 | 0.00 | 0.00 | 63 | 1017.4 |
| 20260508135001 | 16 | 225 | 1.6 | 17.7 | 0.00 | 0.00 | 0.00 | 65 | 1017.3 |
| 20260508134452 | 16 | 225 | 6.4 | 14.5 | 0.00 | 0.00 | 0.00 | 68 | 1017.4 |
| 20260508133942 | 16 | 248 | 0.0 | 6.4 | 0.00 | 0.00 | 0.00 | 68 | 1017.7 |
| 20260508133431 | 15 | 225 | 0.0 | 14.5 | 0.00 | 0.00 | 0.00 | 69 | 1017.4 |
| 20260508132922 | 15 | 248 | 1.6 | 17.7 | 0.00 | 0.00 | 0.00 | 68 | 1017.6 |
| 20260508131901 | 15 | 270 | 0.0 | 14.5 | 0.00 | 0.00 | 0.00 | 75 | 1017.4 |
| 20260508131352 | 15 | 248 | 1.6 | 17.7 | 0.00 | 0.00 | 0.00 | 74 | 1017.6 |
| 20260508130841 | 15 | 248 | 11.3 | 17.7 | 0.00 | 0.00 | 0.00 | 73 | 1017.6 |
| 20260508130331 | 15 | 248 | 6.4 | 12.9 | 0.00 | 0.00 | 0.00 | 76 | 1017.4 |
| 20260508125820 | 14 | 248 | 0.0 | 3.2 | 0.00 | 0.00 | 0.00 | 75 | 1017.5 |
| 20260508125311 | 14 | 293 | 0.0 | 20.9 | 0.00 | 0.00 | 0.00 | 76 | 1017.3 |
| 20260508124800 | 14 | 270 | 1.6 | 20.9 | 0.00 | 0.00 | 0.00 | 77 | 1017.2 |
| 20260508124250 | 14 | 270 | 12.9 | 20.9 | 0.00 | 0.00 | 0.00 | 77 | 1017.3 |
| 20260508123741 | 14 | 270 | 12.9 | 20.9 | 0.00 | 0.00 | 0.00 | 77 | 1017.5 |
| 20260508123231 | 13 | 225 | 12.9 | 17.7 | 0.00 | 0.00 | 0.00 | 78 | 1017.3 |
| 20260508122720 | 13 | 225 | 0.0 | 3.2 | 0.00 | 0.00 | 0.00 | 80 | 1017.2 |
| 20260508121700 | 13 | 270 | 0.0 | 3.2 | 0.00 | 0.00 | 0.00 | 83 | 1017.3 |
| 20260508121150 | 13 | 225 | 0.0 | 3.2 | 0.00 | 0.00 | 0.00 | 83 | 1017.0 |
| 20260508120640 | 13 | 248 | 0.0 | 3.2 | 0.00 | 0.00 | 0.00 | 84 | 1017.3 |
| 20260508120129 | 13 | 248 | 0.0 | 3.2 | 0.00 | 0.00 | 0.00 | 84 | 1017.1 |
| 20260508115110 | 12 | 248 | 0.0 | 14.5 | 0.00 | 0.00 | 0.00 | 87 | 1016.9 |
| 20260508114559 | 12 | 248 | 0.0 | 14.5 | 0.00 | 0.00 | 0.00 | 87 | 1017.0 |